Vertical_Velocity
-4 -2 -1 1 2 1 -2 1 2 1 -1 4 5 5 5 6 5 4 4 3 1 -0 -2 -3 -3 -3 -2 -2 -0 1 2 3 3 2 -0 0 1 1 1 -0 -1 -2 -2 -1 -1 -1 -2 -2 -2 -1 1 2 2 1 0 0 1 1 1 0 0 0 0 0 0 -0 -1 -1 -0 0 0 1 1 1 1 1 2 2 2 2 2 2 2 2 1 0
-5 -2 -2 0 2 1 -5 0 2 1 -4 1 3 5 7 7 7 7 8 7 5 3 0 -2 -3 -4 -4 -3 -2 -0 1 4 7 7 4 2 1 1 1 1 -0 -1 -2 -1 -1 -1 -1 -2 -2 -1 0 2 2 1 0 1 1 2 2 1 1 0 0 0 -0 -0 -1 -1 -1 -0 1 1 2 2 2 2 2 2 2 1 1 1 1 1 1 1
-2 -1 -3 -0 1 0 -6 -1 2 2 -2 -0 2 4 6 6 6 8 10 9 8 6 4 1 -2 -4 -5 -4 -3 -1 -1 3 6 7 7 7 5 3 0 0 -1 -2 -2 -1 -1 -1 -1 -2 -2 -1 -0 1 2 2 1 0 1 1 2 2 1 1 0 -0 -0 -1 -1 -1 -1 -0 1 2 2 2 2 2 2 2 2 0 0 1 1 2 2 2
2 -0 -4 -0 0 -2 -5 -1 0 1 1 0 0 2 5 4 4 6 9 9 9 8 7 4 0 -3 -5 -5 -4 -3 -2 -1 1 3 4 6 6 4 3 4 2 -1 -0 -1 -1 -1 -1 -1 -1 -1 -0 2 2 2 1 1 0 1 2 2 1 1 0 -0 -1 -1 -1 -1 -1 -0 1 2 2 2 2 3 5 6 4 0 -1 0 1 3 3 3
2 -1 -5 1 1 -1 -3 -0 -1 -2 1 1 0 0 2 1 2 3 6 8 9 10 9 7 3 -2 -5 -5 -5 -4 -3 -3 -2 -1 1 1 1 1 2 4 3 1 3 2 0 -0 -1 -1 -1 -1 -0 2 3 3 3 1 0 0 1 1 1 1 1 0 -0 -1 -1 -1 -1 -0 1 2 2 3 4 9 12 12 8 1 -1 0 3 6 6 4
1 -1 -4 2 2 -1 0 2 -1 -3 -1 -1 -1 -0 -0 -1 1 3 5 7 8 9 8 7 4 -1 -4 -5 -5 -4 -3 -4 -3 -3 -1 -1 -1 -1 -1 0 0 0 1 1 1 0 -0 -1 -1 -1 -1 1 3 3 3 1 -0 -1 -0 0 0 0 0 -0 -0 -0 -0 -1 -0 -0 1 1 2 4 7 13 16 15 9 2 0 1 5 9 9 6
0 -0 -0 1 -0 -1 4 2 -0 -1 0 -2 -2 -0 -1 -1 1 3 4 6 6 7 6 5 3 1 -2 -4 -4 -3 -3 -3 -3 -3 -2 -2 -1 -0 0 -1 -1 -1 -1 -0 0 0 0 -0 -1 -1 -1 -1 0 1 1 0 -1 -1 -1 -0 -0 -0 -0 -1 -1 -1 -0 -0 -0 -0 0 1 2 3 6 12 14 13 7 3 1 1 5 11 11 7
-0 -0 3 1 -1 -1 4 1 -0 0 1 -1 -1 -0 -2 -1 0 2 2 4 5 5 4 4 4 3 2 -0 -1 -1 -2 -2 -2 -2 -2 -2 -0 2 5 3 0 -2 -1 -1 -0 0 1 0 -0 -1 -2 -1 -1 -1 -1 -1 -1 -2 -2 -1 -0 -0 -0 -1 -1 -1 -0 0 0 0 -0 -0 0 1 3 7 9 10 8 5 1 -0 3 9 10 8
-1 -1 2 1 1 1 2 -1 -1 -0 1 1 1 -0 -2 -1 -1 0 2 3 3 3 5 4 4 4 4 3 2 1 0 0 -0 -1 -1 -1 -0 3 8 7 3 -1 -1 -1 -0 0 1 0 -0 -1 -1 -2 -2 -2 -2 -2 -2 -2 -2 -1 -0 0 -0 -0 -0 -0 -0 -0 0 0 0 -0 -0 -0 0 2 5 7 8 7 3 1 2 8 10 9
-1 -1 -1 -0 1 2 2 -2 -3 -1 3 2 1 -0 -0 -1 -1 0 3 1 1 2 5 4 3 3 4 5 4 3 1 0 -0 -0 1 4 5 5 7 8 4 0 0 -0 -0 0 0 0 -0 -1 -1 -1 -1 -1 -2 -2 -2 -2 -1 -1 -0 -0 -0 -0 -0 -0 -1 -0 -0 -0 0 0 -0 -1 -1 -0 1 4 7 9 8 7 6 9 10 10
-4 -3 -1 -2 -1 1 2 -2 -3 0 5 4 1 -1 0 -1 -0 1 2 -1 -1 2 4 3 3 4 3 4 4 3 1 -1 -2 -2 2 13 19 19 12 9 4 1 1 -0 -0 -0 -0 -0 -0 -0 -1 -1 -1 -1 -1 -1 -1 -1 -1 -1 -1 -0 -0 -0 -0 -0 -0 -0 -0 -0 -0 -0 -0 -1 -1 -1 -0 1 4 8 10 11 11 11 10 10
-4 -4 -2 -3 -2 -1 -0 -2 -2 1 5 4 2 -1 -3 -4 -2 0 -0 -2 -1 2 2 2 4 5 4 2 1 1 1 -1 -4 -5 -2 13 24 28 21 12 6 2 -0 -0 -0 -0 -1 0 1 1 1 1 0 1 1 -0 -0 -1 -1 -1 -0 -0 -0 -0 -0 0 -0 -0 -0 -1 -1 -1 -1 -1 -1 -1 -0 1 3 6 8 10 12 11 10 8
-2 -2 -2 -3 -2 -2 -2 -1 -1 -0 1 1 0 -2 -5 -6 -4 -2 -4 -3 -1 1 1 4 5 5 4 1 -0 -0 2 -1 -4 -5 -4 5 16 24 25 18 11 4 -0 0 0 1 1 2 2 3 2 2 2 2 2 2 1 1 0 -0 -0 -0 -0 -0 -0 -0 0 0 0 -0 -0 -1 -1 -1 -1 -1 0 1 3 5 7 8 10 10 9 8
-2 -1 -2 -2 -3 -3 -2 -0 0 -1 -2 -2 -3 -4 -6 -3 -2 -2 -4 -4 -3 -1 3 5 5 5 4 2 0 -0 2 -0 -2 -2 -1 1 7 15 23 23 19 12 5 3 2 2 3 4 4 4 4 3 3 3 3 3 3 2 1 0 0 0 -0 -0 -0 -0 0 0 0 0 0 -0 -1 -1 -1 -1 -0 1 2 4 5 6 7 8 8 8
-1 -1 -1 -3 -3 -3 -2 -1 -0 -1 -3 -2 -3 -4 -5 -3 -2 0 4 1 -1 -1 4 3 3 4 5 1 -0 0 3 2 1 0 -1 -1 2 7 15 21 23 21 16 10 6 5 5 5 4 4 5 4 4 3 4 4 4 3 2 1 0 -0 -0 -0 -0 -1 -0 -0 0 0 0 0 -0 -1 -1 -1 -0 1 1 3 4 5 5 5 6 7
-1 -1 -2 -3 -3 -3 -3 -1 -0 -1 -3 -1 -1 -1 -1 -4 -6 -3 5 4 5 7 10 5 3 3 3 -0 0 2 3 3 2 1 -0 0 2 4 8 12 17 21 22 17 11 7 6 4 3 3 5 5 4 4 4 4 4 4 2 0 -0 -1 -1 -1 -1 -1 -1 -1 -1 -0 0 0 0 0 -0 -0 -0 0 1 2 3 4 4 4 5 6
-1 -1 -3 -2 -2 -3 -3 -1 -2 -3 -3 -1 -0 -0 0 -4 -6 -5 -2 -2 3 8 9 8 6 3 -1 1 1 1 2 3 0 -1 1 3 2 3 5 5 7 11 17 15 11 7 5 2 1 2 4 4 5 4 3 2 2 3 2 0 -1 -1 -2 -1 -1 -1 -1 -1 -1 -1 -0 0 1 1 0 -0 -0 0 1 2 3 3 4 3 4 5
-1 -1 -2 -2 -2 -3 -2 -2 -3 -4 -3 -1 -1 -1 0 -2 -2 -3 -3 -5 -2 1 -0 3 2 -0 -1 3 1 -2 2 1 -2 -4 3 3 2 3 5 3 2 2 6 6 4 2 3 1 1 1 2 3 4 3 0 0 1 1 0 -1 -1 -2 -2 -2 -1 -1 -1 -2 -2 -1 -1 0 1 1 1 -0 -1 -0 0 1 2 3 4 4 4 4
-2 -2 -1 -2 -2 -2 -2 -3 -3 -4 -3 -3 -2 -0 1 -1 -0 -0 -3 -4 -4 -4 -6 -3 -3 -3 0 1 -1 -2 4 -2 -4 -3 2 1 2 4 5 3 1 -0 1 0 -1 -1 1 1 1 1 1 2 2 1 -1 -1 -1 -1 -0 -1 -2 -3 -3 -2 -2 -2 -2 -2 -2 -2 -1 -0 0 1 1 -0 -1 -1 -1 0 2 3 4 5 5 5
-2 -1 -1 -3 -3 -2 -2 -2 -2 -2 -2 -3 -1 1 -0 -1 1 1 -3 -3 -3 -4 -5 -1 -2 -4 -1 -1 -0 1 3 -4 -5 -3 -2 -0 3 5 4 4 1 -1 0 -0 -0 1 3 1 1 1 1 2 1 0 -1 -1 -1 -1 -1 -2 -3 -4 -3 -3 -2 -2 -2 -2 -2 -2 -2 -1 -0 0 0 -0 -1 -2 -1 -0 1 2 4 5 5 5
2 0 -3 -2 -2 -3 -4 -3 -1 -1 -2 -2 0 1 -1 -0 1 1 -2 -1 -1 -2 -2 2 -2 -5 -2 0 1 2 4 -1 -4 -6 -8 0 4 6 4 4 2 -0 1 1 2 3 3 1 1 2 3 3 3 2 1 0 -0 -0 0 -1 -3 -4 -4 -3 -3 -2 -2 -2 -2 -2 -2 -1 -0 -0 0 -1 -1 -2 -2 -1 -0 1 3 4 5 5
4 1 -3 -0 0 -1 -4 -2 -1 -0 -2 -0 1 -0 -3 0 1 -0 -2 1 1 -1 -0 -1 -4 -6 -1 1 1 2 8 4 -2 -8 -8 3 7 7 8 7 4 1 2 -0 0 1 2 1 0 1 2 3 4 5 6 5 3 3 2 -0 -2 -4 -4 -3 -3 -3 -2 -2 -2 -2 -2 -1 -1 -0 -0 -1 -1 -1 -1 -1 -1 0 1 2 3 4
1 0 -1 2 2 1 -1 -0 -1 -1 -1 0 -1 -3 -4 0 1 -1 -1 1 0 -2 -2 -4 -5 -4 1 2 1 3 8 4 -2 -6 -2 2 3 5 13 11 7 2 -0 -2 -1 0 -0 0 0 0 1 2 4 7 11 10 8 6 3 1 -1 -3 -4 -4 -4 -3 -3 -2 -2 -2 -2 -2 -1 -1 -0 -1 -1 -1 -1 -1 -0 -0 0 1 2 2
-0 -1 -1 1 2 2 1 1 -0 -1 -1 -0 -2 -4 -3 -0 0 -1 -1 0 -1 -2 -2 -2 -0 1 2 0 1 3 4 1 -1 -2 0 -2 -2 1 10 12 10 5 -2 -3 -2 -0 -0 1 1 1 3 2 4 7 12 12 9 5 2 1 -1 -2 -4 -4 -4 -4 -4 -3 -3 -2 -2 -2 -1 -1 -1 -1 -1 -1 -1 -0 -0 0 -0 0 1 1
2 1 0 0 1 1 1 1 0 0 0 0 -1 -2 -2 -0 -0 -1 -0 0 0 -0 0 2 4 2 -3 -2 0 1 -2 -0 2 2 1 -2 -4 -4 0 9 15 14 4 -1 -1 1 2 3 3 3 5 4 5 7 9 9 6 4 1 1 0 -1 -3 -4 -5 -5 -5 -4 -3 -3 -3 -2 -2 -1 -1 -1 -1 -1 -1 -0 -0 0 0 0 1 1
4 3 2 2 2 2 2 1 1 1 1 1 0 -0 -1 0 0 1 2 1 0 -1 -0 2 1 -1 -5 0 2 -0 -5 -0 2 3 2 1 -1 -4 -5 6 19 26 20 10 5 4 5 5 5 6 8 5 5 6 7 7 6 5 5 5 4 2 -0 -3 -5 -5 -5 -5 -4 -3 -3 -2 -2 -1 -1 -1 -1 -1 -1 -1 -0 0 0 1 1 1
2 3 3 4 4 4 3 3 2 2 2 1 1 0 0 2 3 4 4 -2 -4 -3 1 1 -0 -2 -1 4 3 -1 -4 -0 -0 -1 -0 4 3 -1 -6 5 19 30 31 21 13 7 8 9 8 8 8 5 4 4 5 7 9 11 13 12 10 7 3 -1 -4 -5 -6 -5 -4 -4 -3 -2 -2 -1 -1 -0 -0 -0 -0 -0 -0 0 0 1 1 1
0 1 2 3 3 4 4 4 4 4 3 2 1 0 1 4 7 7 2 -7 -5 -0 3 1 -1 -0 2 4 1 -2 -0 2 -2 -5 -4 6 6 1 -5 5 17 28 31 24 15 9 10 10 9 8 6 3 2 3 4 10 15 18 19 17 13 9 4 -1 -4 -5 -5 -5 -4 -4 -3 -2 -1 -1 -0 0 0 0 0 0 0 0 0 0 0 0
0 -0 -0 0 1 2 3 3 4 4 4 3 3 2 1 5 8 6 -5 -7 0 6 2 -2 -1 0 1 1 1 2 7 4 -2 -6 -2 7 5 -1 -2 6 14 20 23 20 15 11 11 10 9 7 4 1 1 2 5 13 18 19 16 13 10 6 2 -2 -4 -5 -5 -4 -3 -3 -2 -1 -0 0 1 1 1 1 1 1 1 1 -0 -1 -1 -1
1 0 -0 -1 -0 0 1 1 2 2 3 3 3 3 2 5 7 3 -6 -1 7 9 -2 -3 -1 1 -2 1 5 9 10 3 -3 -5 2 6 1 -4 -0 6 9 11 16 15 14 12 10 8 7 6 2 1 1 3 7 13 14 12 8 5 4 2 0 -1 -3 -3 -3 -2 -2 -1 -0 0 1 1 2 2 2 2 2 2 1 0 -1 -2 -2 -2
1 2 0 -1 -1 -0 -0 -0 0 0 1 2 2 3 3 5 5 3 -1 5 7 5 -3 0 1 -0 -2 3 8 10 6 -1 -5 -5 3 4 -1 -5 0 6 6 5 9 9 9 9 9 7 5 4 1 2 2 4 8 12 11 8 5 5 4 4 3 1 -0 -1 -1 -0 0 0 1 1 1 2 2 2 2 2 2 2 1 0 -1 -2 -2 -2
1 2 0 -0 0 0 -1 -1 -1 -0 -1 -1 -0 1 2 3 4 4 3 5 4 3 2 3 2 -1 -1 3 6 5 2 -0 -3 -3 2 3 -2 -4 2 4 4 3 3 3 4 6 9 8 5 2 2 3 3 4 9 12 11 8 6 6 7 6 4 2 1 1 0 -0 -0 -0 -0 0 1 1 1 1 2 2 2 2 1 0 -1 -1 -2 -2
0 1 0 1 1 0 -0 -0 -1 -1 -1 -2 -2 -1 -1 1 2 3 4 4 4 4 6 4 3 2 2 3 3 4 3 4 0 -3 -0 3 2 -0 2 3 3 1 -1 -1 0 3 8 9 7 4 1 1 3 6 11 14 12 8 5 4 4 4 3 1 1 -0 -1 -2 -2 -2 -2 -1 -1 -1 -0 0 1 1 2 2 1 1 0 -0 -0 -0
-0 -0 0 0 0 0 0 0 0 -1 -1 -1 -2 -2 -2 -1 -0 1 2 3 4 5 6 4 4 3 3 3 4 5 5 4 -1 -6 -1 5 4 1 2 4 3 0 -1 -2 -2 -0 5 8 9 8 2 -0 2 6 13 17 15 9 4 2 1 1 1 0 -0 -1 -1 -2 -2 -2 -2 -2 -2 -2 -1 -0 0 1 1 2 2 1 1 1 1 1
-0 -0 -0 0 -0 -0 0 0 0 -0 -0 -1 -1 -2 -2 -2 -2 -1 -0 1 2 4 5 4 4 4 3 5 6 6 6 1 -5 -7 2 5 2 -0 3 5 3 0 2 -2 -3 -2 1 4 7 7 4 1 1 3 10 16 17 13 8 5 3 2 1 0 -0 -1 -1 -2 -2 -2 -1 -2 -2 -2 -2 -1 -0 0 1 1 1 1 1 1 1 1
-1 -1 -0 0 -0 -1 -0 0 0 0 -0 -0 -1 -1 -1 -2 -2 -2 -1 -1 0 2 3 4 5 5 5 6 6 6 4 -3 -6 -4 3 1 -0 1 6 3 1 1 5 -1 -3 -3 -2 -0 2 4 5 4 2 0 2 9 14 17 16 12 9 6 3 2 1 0 -1 -2 -2 -1 -1 -1 -1 -1 -1 -1 -1 -1 -1 -1 -1 -1 -0 -0 -0 -0
-0 -0 0 0 -0 -1 -0 0 0 0 -0 -0 0 -0 -1 -1 -1 -1 -1 -2 -1 0 2 3 4 5 5 6 7 6 3 -1 1 3 1 -3 -1 4 8 0 -0 3 7 1 -1 -2 -3 -1 0 2 5 5 3 1 -0 2 8 15 20 17 13 8 4 3 2 0 -0 -1 -2 -2 -1 -1 -1 -0 0 -0 -1 -2 -2 -2 -2 -2 -2 -2 -2 -2
-0 0 0 0 -0 -0 -0 0 0 0 0 0 0 0 0 -0 -0 -0 -1 -1 -1 -0 1 2 3 4 5 5 7 7 4 6 7 4 -3 -4 0 5 5 1 2 5 4 1 0 0 -1 0 0 0 1 2 3 3 2 2 5 10 14 14 11 6 2 1 -0 -1 -1 -1 -2 -2 -1 -0 -0 0 1 -0 -1 -1 -1 -2 -2 -3 -3 -3 -3 -3
-0 -0 0 0 0 -0 -0 0 0 1 0 0 0 1 1 0 -0 -0 -0 -1 -1 -0 0 1 2 3 3 5 6 6 6 8 5 1 -3 -2 -0 1 1 3 4 3 -1 0 2 3 4 4 2 -1 -3 -0 2 4 4 5 6 8 11 13 11 6 -0 -0 0 1 1 -0 -1 -1 -0 0 1 2 2 1 -0 -1 -0 -0 -0 -1 -1 -2 -3 -4
-1 -0 0 0 0 0 -0 0 1 1 -0 -0 0 1 0 -0 0 0 0 -0 -0 -0 -0 0 1 1 2 3 4 6 7 7 5 3 2 1 -1 -3 -0 3 2 -1 -1 2 3 3 4 6 4 2 -0 0 1 3 5 7 7 9 13 16 13 6 0 1 4 7 9 6 3 1 0 0 1 3 4 3 2 1 -0 0 1 2 2 1 -1 -3
-1 -0 -0 0 0 0 -0 1 1 1 -0 -0 -0 -0 -0 0 1 1 0 0 -0 -0 0 1 1 0 1 2 3 4 6 7 7 6 6 2 -1 -2 1 2 0 -0 3 4 2 1 3 5 7 6 5 2 0 1 5 6 8 12 18 16 9 3 -0 1 5 11 15 13 8 4 2 1 1 2 3 4 4 3 1 1 1 1 2 3 2 1
-1 -1 -0 -0 -0 -0 0 1 1 0 0 0 -0 -0 1 1 1 1 1 0 -0 0 2 2 1 1 1 1 1 2 4 5 6 6 5 3 2 2 2 1 1 1 3 4 4 4 3 3 5 8 8 2 0 1 3 6 12 18 23 17 12 7 6 4 6 10 13 12 10 7 4 3 1 1 1 3 4 5 4 3 1 -0 -0 1 1 2
-1 -1 -0 -0 -0 0 0 0 0 0 1 -0 -0 0 2 1 0 0 1 1 0 1 2 1 1 2 2 0 -0 0 1 2 3 5 6 5 4 4 2 1 1 2 3 5 6 5 1 0 3 6 7 4 2 0 -1 4 13 22 26 22 21 21 18 13 9 7 6 6 6 6 5 4 2 0 -1 0 2 3 5 3 1 -1 -3 -3 -2 0
-0 -0 -0 -0 -0 -0 -0 -0 0 1 0 -0 -0 1 1 1 1 1 1 1 1 1 1 1 1 2 1 0 0 0 -1 -0 2 5 5 4 5 5 4 3 3 2 2 5 5 4 1 3 2 2 3 6 6 2 -2 3 10 18 22 23 24 22 18 13 9 4 -1 -1 0 2 2 2 2 2 1 1 2 3 3 3 2 -0 -2 -3 -3 -2
1 1 0 -0 -0 -0 -0 0 0 0 0 0 0 1 1 1 1 1 1 1 1 1 0 1 1 0 -1 1 2 2 -1 -1 -0 1 2 4 6 6 5 4 4 3 3 4 3 2 3 4 0 -3 -1 5 6 4 1 2 6 11 16 20 21 20 17 15 10 3 -4 -4 -3 -3 -2 0 3 5 6 4 3 2 2 1 1 0 -0 -1 -1 -1
1 1 1 1 0 -0 0 0 0 -0 0 0 0 0 1 1 1 1 1 1 1 1 1 1 0 -1 0 4 3 1 -2 -2 -2 -1 -0 3 5 5 5 5 4 3 3 3 2 3 5 4 -0 -3 0 4 6 7 6 2 2 5 10 14 17 20 22 21 12 1 -7 -6 -6 -5 -4 -1 3 7 7 4 1 -1 -1 -1 -0 0 1 2 2 2
1 1 2 1 1 0 0 0 -0 -0 0 0 0 0 1 1 1 1 1 1 1 1 2 1 -0 -1 2 4 2 -0 -1 0 -0 -2 -3 -1 2 4 5 5 5 4 4 3 3 4 6 4 3 3 3 3 6 9 9 6 4 4 4 7 11 15 19 16 7 -2 -8 -7 -7 -7 -5 0 4 7 6 3 1 -0 -1 -1 -1 -0 1 3 4 5
1 2 2 1 1 1 1 0 0 0 0 0 0 0 0 0 0 1 1 1 1 1 2 1 0 0 2 2 1 -0 1 2 0 -2 -3 -3 -1 1 3 4 5 5 4 3 4 5 4 4 5 5 3 0 2 5 9 11 10 7 3 4 7 10 11 7 2 -3 -5 -6 -7 -7 -5 -1 2 3 3 4 3 1 -1 -2 -2 -1 0 3 5 7
1 2 2 2 2 1 1 0 0 0 1 1 0 0 0 0 0 0 1 1 1 1 1 1 1 1 1 1 1 1 1 0 -0 -1 -3 -3 -2 -1 0 2 3 4 4 4 5 4 3 4 5 5 2 0 -1 0 3 10 13 12 10 10 9 7 5 3 1 -0 -2 -5 -7 -7 -6 -4 -3 -1 2 4 3 0 -2 -3 -3 -2 -2 1 4 7
1 1 2 2 2 2 2 1 1 1 1 1 1 1 0 -0 -0 0 1 1 1 1 1 1 1 1 1 1 1 1 -0 0 0 -0 -2 -3 -2 -2 -2 -1 2 3 4 4 4 5 6 7 7 5 3 4 2 0 0 5 9 13 16 14 11 8 6 5 4 2 0 -3 -5 -7 -7 -6 -4 -1 4 4 3 1 -1 -2 -2 -3 -3 -1 2 5
1 1 1 2 2 2 2 2 1 1 1 1 1 1 1 0 -0 -0 -0 0 1 1 1 1 1 1 1 1 1 0 -0 0 0 -1 -1 -1 -2 -3 -4 -2 -0 1 1 3 4 5 6 6 6 6 6 6 4 2 0 0 3 8 14 12 9 7 7 6 5 5 4 0 -3 -6 -7 -6 -4 -2 2 3 3 3 2 1 -1 -2 -3 -2 0 3
Height
5663 5664 5665 5665 5665 5666 5666 5667 5668 5669 5669 5671 5672 5673 5673 5674 5674 5674 5674 5674 5674 5673 5674 5674 5675 5676 5677 5677 5678 5679 5680 5680 5681 5681 5681 5681 5682 5682 5683 5683 5683 5684 5684 5684 5685 5686 5687 5687 5687 5688 5688 5688 5689 5690 5691 5691 5692 5692 5692 5692 5692 5692 5692 5693 5693 5694 5694 5695 5697 5697 5699 5700 5702 5703 5704 5705 5706 5707 5708 5708 5709 5710 5710 5711 5712 5712
5657 5658 5659 5659 5660 5660 5660 5660 5662 5663 5663 5664 5666 5668 5669 5669 5670 5670 5670 5670 5669 5669 5669 5669 5670 5671 5671 5672 5673 5674 5675 5676 5676 5676 5676 5677 5677 5677 5678 5678 5679 5679 5680 5680 5681 5681 5682 5683 5683 5684 5684 5685 5685 5686 5687 5687 5688 5688 5689 5689 5689 5689 5689 5689 5689 5690 5691 5692 5692 5694 5695 5696 5698 5699 5701 5702 5703 5704 5704 5705 5706 5707 5707 5708 5708 5709
5651 5652 5652 5653 5653 5654 5654 5655 5656 5657 5657 5658 5660 5662 5663 5664 5665 5665 5665 5665 5665 5665 5664 5664 5664 5665 5666 5667 5668 5669 5670 5671 5671 5671 5672 5672 5672 5672 5673 5673 5674 5674 5675 5675 5676 5677 5677 5678 5679 5680 5680 5681 5682 5682 5683 5684 5684 5685 5685 5685 5685 5686 5686 5686 5686 5686 5687 5688 5689 5690 5691 5692 5694 5696 5697 5698 5700 5701 5701 5701 5702 5703 5704 5705 5705 5705
5645 5646 5646 5647 5647 5647 5647 5648 5650 5651 5651 5652 5653 5655 5656 5657 5658 5659 5660 5660 5660 5659 5659 5659 5659 5659 5660 5661 5662 5663 5664 5665 5666 5666 5667 5667 5668 5668 5669 5669 5669 5670 5670 5671 5672 5672 5673 5674 5675 5676 5677 5677 5678 5678 5679 5680 5680 5681 5682 5682 5682 5682 5682 5682 5682 5683 5683 5684 5685 5687 5688 5689 5691 5692 5693 5695 5697 5699 5698 5698 5698 5699 5701 5703 5703 5702
5638 5639 5639 5640 5641 5642 5641 5642 5642 5643 5644 5646 5647 5648 5649 5650 5652 5652 5654 5654 5654 5654 5654 5654 5654 5654 5654 5655 5657 5658 5659 5660 5660 5661 5662 5662 5662 5663 5664 5665 5665 5666 5666 5667 5667 5668 5669 5670 5671 5672 5672 5673 5673 5674 5675 5676 5676 5677 5677 5678 5678 5679 5679 5679 5679 5680 5680 5681 5682 5683 5684 5686 5687 5689 5691 5693 5695 5697 5697 5695 5694 5696 5698 5701 5702 5701
5632 5632 5632 5634 5635 5635 5635 5635 5635 5636 5637 5639 5640 5641 5642 5643 5645 5646 5647 5648 5648 5648 5648 5647 5648 5648 5648 5649 5651 5652 5653 5654 5655 5656 5657 5657 5658 5658 5658 5659 5660 5661 5661 5662 5663 5664 5665 5666 5667 5667 5668 5669 5669 5670 5671 5671 5672 5673 5673 5674 5675 5675 5675 5676 5676 5677 5677 5678 5679 5680 5681 5682 5683 5686 5689 5692 5692 5693 5693 5690 5690 5693 5696 5699 5699 5697
5625 5626 5626 5627 5627 5628 5628 5628 5628 5629 5631 5632 5633 5634 5635 5636 5638 5639 5641 5642 5642 5642 5642 5642 5642 5643 5643 5644 5645 5647 5647 5648 5649 5650 5651 5652 5653 5653 5653 5654 5655 5656 5657 5657 5658 5659 5660 5661 5662 5663 5664 5665 5665 5666 5666 5667 5668 5669 5669 5670 5671 5671 5672 5672 5673 5673 5674 5675 5676 5677 5677 5678 5680 5681 5684 5688 5689 5689 5687 5687 5687 5689 5693 5696 5695 5693
5619 5620 5620 5621 5621 5621 5622 5622 5622 5622 5624 5625 5626 5627 5628 5629 5631 5632 5633 5634 5635 5635 5635 5636 5637 5637 5638 5639 5640 5641 5642 5642 5643 5644 5645 5646 5647 5648 5648 5648 5649 5650 5651 5652 5653 5654 5656 5657 5657 5658 5659 5660 5661 5662 5662 5663 5664 5664 5665 5666 5667 5667 5667 5668 5669 5670 5671 5672 5672 5673 5674 5675 5676 5677 5678 5681 5683 5684 5684 5685 5684 5685 5688 5691 5692 5691
5613 5613 5614 5614 5614 5615 5615 5615 5615 5616 5617 5618 5619 5620 5621 5622 5624 5625 5626 5627 5627 5628 5629 5630 5631 5632 5632 5633 5635 5636 5637 5637 5638 5639 5640 5641 5642 5643 5643 5643 5644 5645 5646 5647 5648 5649 5651 5652 5653 5654 5655 5655 5656 5657 5657 5658 5659 5660 5661 5662 5662 5663 5664 5664 5665 5666 5667 5668 5669 5669 5670 5671 5672 5673 5674 5675 5677 5678 5679 5680 5680 5681 5684 5687 5688 5688
5607 5607 5607 5608 5608 5608 5608 5608 5608 5609 5610 5612 5612 5612 5613 5615 5616 5617 5619 5620 5621 5622 5623 5624 5625 5626 5627 5628 5628 5629 5630 5632 5633 5634 5636 5636 5637 5637 5637 5637 5638 5639 5640 5642 5643 5644 5646 5647 5648 5649 5650 5651 5651 5652 5653 5654 5654 5655 5656 5657 5658 5658 5659 5660 5661 5662 5663 5664 5665 5666 5667 5667 5668 5669 5670 5671 5672 5673 5674 5675 5676 5677 5678 5682 5684 5685
5601 5601 5602 5602 5602 5602 5602 5602 5602 5602 5604 5605 5605 5605 5606 5607 5609 5610 5612 5612 5614 5615 5617 5618 5619 5620 5621 5622 5622 5623 5624 5625 5627 5629 5632 5633 5633 5632 5631 5631 5632 5633 5635 5636 5637 5639 5640 5642 5643 5644 5645 5646 5647 5647 5648 5649 5650 5651 5652 5652 5653 5654 5655 5656 5657 5658 5659 5660 5661 5662 5663 5663 5664 5665 5666 5667 5667 5668 5669 5671 5672 5672 5674 5676 5678 5680
5596 5596 5596 5595 5595 5596 5596 5596 5596 5596 5597 5598 5597 5597 5598 5600 5602 5603 5604 5605 5607 5609 5611 5612 5612 5614 5614 5614 5615 5616 5618 5619 5620 5622 5625 5626 5628 5628 5627 5627 5627 5628 5629 5631 5632 5633 5635 5637 5638 5639 5640 5641 5642 5643 5644 5644 5645 5646 5647 5648 5649 5649 5650 5651 5652 5654 5655 5656 5657 5658 5659 5659 5660 5661 5662 5662 5663 5664 5665 5666 5667 5668 5669 5670 5672 5674
5591 5591 5590 5590 5589 5589 5590 5590 5590 5590 5591 5591 5591 5591 5591 5592 5595 5597 5597 5598 5600 5602 5604 5605 5606 5607 5607 5607 5608 5609 5611 5613 5614 5615 5617 5617 5618 5620 5622 5622 5623 5623 5624 5625 5627 5628 5630 5632 5633 5634 5635 5636 5637 5638 5639 5640 5641 5642 5642 5643 5644 5645 5646 5647 5648 5649 5651 5652 5653 5654 5655 5655 5656 5657 5657 5658 5659 5660 5661 5661 5662 5663 5664 5665 5667 5668
5585 5585 5584 5584 5583 5583 5584 5584 5584 5584 5584 5584 5585 5585 5585 5587 5588 5590 5590 5591 5592 5595 5597 5598 5600 5600 5600 5601 5602 5603 5604 5606 5608 5609 5611 5612 5612 5612 5615 5617 5617 5618 5620 5621 5622 5623 5625 5627 5628 5629 5630 5632 5632 5633 5634 5635 5636 5637 5638 5639 5640 5640 5641 5642 5643 5645 5646 5647 5648 5649 5650 5651 5652 5652 5653 5654 5655 5656 5656 5657 5658 5659 5660 5661 5662 5663
5579 5579 5579 5578 5577 5577 5578 5578 5578 5578 5578 5578 5579 5579 5580 5581 5582 5583 5584 5585 5586 5587 5590 5591 5592 5593 5594 5594 5594 5596 5598 5600 5602 5603 5605 5606 5606 5607 5608 5610 5611 5613 5615 5617 5617 5618 5620 5622 5622 5624 5625 5626 5627 5628 5629 5630 5631 5632 5633 5634 5635 5636 5637 5638 5639 5640 5641 5642 5643 5645 5646 5647 5648 5648 5649 5650 5651 5652 5652 5653 5654 5654 5655 5656 5657 5659
5573 5573 5572 5572 5572 5572 5572 5572 5572 5572 5572 5572 5573 5574 5574 5574 5575 5576 5577 5577 5578 5581 5583 5584 5584 5586 5587 5587 5588 5590 5592 5593 5595 5597 5598 5600 5601 5601 5602 5603 5605 5607 5609 5611 5612 5614 5615 5616 5617 5618 5620 5621 5622 5623 5624 5625 5626 5627 5628 5629 5630 5631 5632 5633 5634 5635 5636 5637 5638 5640 5641 5642 5643 5644 5645 5646 5647 5648 5648 5649 5650 5651 5652 5652 5654 5655
5567 5567 5567 5566 5566 5566 5566 5566 5566 5565 5565 5566 5567 5567 5568 5568 5568 5570 5571 5570 5571 5573 5575 5576 5578 5579 5580 5581 5582 5584 5585 5586 5587 5589 5592 5594 5594 5595 5597 5597 5598 5600 5603 5605 5607 5608 5610 5611 5611 5612 5614 5615 5616 5617 5618 5619 5620 5622 5623 5624 5625 5626 5627 5628 5629 5630 5631 5632 5633 5635 5637 5638 5639 5640 5641 5642 5643 5644 5645 5646 5646 5647 5648 5649 5650 5651
5562 5561 5560 5560 5560 5559 5559 5559 5559 5559 5559 5560 5560 5561 5562 5562 5562 5563 5564 5565 5565 5566 5567 5569 5571 5572 5573 5575 5576 5577 5578 5579 5580 5581 5585 5587 5588 5589 5591 5592 5592 5593 5597 5599 5601 5602 5604 5605 5606 5607 5608 5609 5610 5611 5612 5613 5615 5616 5617 5619 5620 5621 5622 5623 5624 5625 5626 5627 5628 5630 5632 5633 5634 5636 5637 5638 5639 5640 5641 5642 5643 5643 5644 5645 5647 5647
5555 5554 5554 5554 5553 5553 5553 5553 5552 5553 5553 5553 5554 5554 5555 5555 5556 5557 5557 5558 5559 5560 5561 5562 5564 5566 5567 5568 5569 5570 5571 5572 5572 5574 5577 5580 5582 5583 5584 5586 5586 5587 5590 5592 5594 5596 5597 5599 5600 5601 5602 5603 5604 5605 5606 5607 5609 5611 5612 5613 5614 5615 5617 5618 5619 5620 5621 5622 5623 5625 5627 5628 5630 5631 5632 5633 5634 5636 5637 5638 5639 5640 5641 5642 5643 5644
5548 5547 5547 5547 5546 5546 5546 5546 5546 5547 5547 5547 5547 5548 5548 5548 5549 5550 5550 5550 5552 5553 5554 5556 5557 5558 5560 5562 5562 5563 5564 5564 5566 5567 5569 5572 5575 5577 5577 5579 5580 5581 5583 5586 5587 5589 5591 5592 5593 5595 5597 5598 5599 5600 5601 5602 5603 5605 5607 5608 5609 5610 5612 5613 5614 5615 5616 5617 5618 5620 5622 5623 5625 5626 5628 5629 5630 5631 5632 5634 5635 5636 5637 5638 5639 5641
5541 5540 5540 5539 5539 5539 5539 5539 5540 5540 5540 5540 5541 5541 5541 5541 5542 5543 5542 5543 5545 5546 5547 5549 5550 5551 5553 5555 5556 5557 5557 5558 5559 5560 5561 5564 5568 5570 5571 5572 5574 5575 5577 5579 5581 5583 5584 5585 5587 5589 5590 5592 5594 5595 5596 5597 5599 5600 5602 5603 5604 5605 5607 5608 5609 5610 5611 5612 5614 5615 5617 5618 5620 5622 5623 5624 5625 5627 5628 5629 5631 5632 5633 5635 5636 5637
5534 5532 5531 5531 5532 5532 5531 5532 5532 5532 5532 5532 5533 5534 5534 5535 5535 5536 5536 5537 5538 5538 5539 5541 5542 5543 5546 5548 5548 5548 5550 5552 5552 5552 5554 5557 5560 5562 5564 5565 5567 5568 5570 5572 5574 5576 5578 5579 5581 5583 5585 5587 5588 5590 5591 5592 5593 5595 5596 5597 5599 5600 5601 5603 5604 5605 5607 5608 5609 5610 5612 5613 5615 5617 5618 5620 5621 5622 5623 5625 5627 5628 5629 5631 5632 5633
5525 5524 5522 5523 5523 5523 5523 5523 5523 5523 5524 5525 5525 5526 5526 5528 5529 5529 5529 5530 5531 5531 5532 5533 5535 5537 5539 5540 5540 5541 5543 5544 5544 5545 5547 5549 5551 5554 5557 5558 5560 5561 5563 5566 5568 5570 5571 5573 5575 5577 5579 5581 5583 5584 5586 5587 5588 5589 5590 5592 5593 5595 5596 5597 5599 5600 5602 5603 5604 5606 5607 5609 5610 5612 5613 5615 5616 5618 5619 5621 5622 5624 5625 5627 5628 5629
5516 5515 5514 5514 5514 5514 5514 5514 5514 5514 5515 5516 5517 5517 5518 5520 5521 5521 5522 5523 5524 5524 5525 5527 5528 5530 5531 5532 5533 5534 5535 5535 5537 5538 5540 5541 5543 5546 5550 5552 5553 5555 5557 5559 5562 5564 5565 5567 5569 5571 5573 5575 5577 5579 5580 5581 5582 5583 5584 5586 5587 5589 5591 5592 5594 5596 5597 5598 5600 5601 5602 5604 5606 5607 5609 5610 5612 5613 5615 5616 5618 5619 5621 5622 5624 5625
5506 5505 5505 5505 5504 5504 5504 5504 5505 5505 5506 5507 5507 5508 5509 5511 5512 5513 5514 5515 5516 5517 5518 5520 5521 5522 5522 5524 5527 5528 5527 5528 5530 5532 5533 5533 5536 5539 5543 5545 5547 5549 5550 5553 5556 5558 5559 5561 5563 5566 5568 5570 5571 5573 5574 5575 5576 5577 5579 5580 5581 5583 5584 5587 5588 5590 5592 5593 5595 5596 5598 5599 5601 5602 5604 5606 5607 5609 5610 5612 5613 5615 5617 5618 5619 5621
5496 5495 5495 5494 5494 5494 5494 5495 5495 5496 5496 5497 5498 5499 5501 5502 5503 5504 5505 5507 5508 5509 5511 5512 5513 5514 5515 5518 5520 5520 5520 5522 5524 5525 5525 5526 5529 5532 5536 5538 5540 5543 5545 5547 5550 5552 5553 5555 5557 5560 5562 5564 5565 5567 5569 5570 5571 5572 5573 5574 5575 5577 5578 5580 5583 5585 5587 5589 5590 5592 5593 5595 5596 5598 5600 5601 5603 5605 5606 5607 5609 5611 5612 5613 5615 5616
5484 5483 5483 5483 5483 5484 5484 5484 5485 5485 5486 5487 5488 5489 5491 5492 5494 5496 5497 5497 5499 5501 5503 5504 5506 5507 5509 5511 5512 5513 5514 5517 5517 5517 5518 5520 5523 5526 5529 5531 5534 5537 5539 5541 5543 5545 5547 5549 5551 5553 5555 5557 5559 5562 5564 5566 5567 5567 5568 5568 5569 5570 5572 5574 5577 5579 5582 5584 5586 5587 5589 5590 5592 5594 5595 5597 5599 5600 5602 5603 5605 5606 5608 5609 5611 5612
5471 5471 5471 5471 5472 5472 5472 5473 5474 5475 5475 5477 5477 5479 5481 5483 5485 5486 5486 5487 5490 5493 5495 5496 5497 5499 5502 5503 5504 5506 5508 5510 5510 5510 5512 5515 5517 5518 5521 5525 5528 5530 5532 5534 5536 5538 5540 5542 5544 5546 5548 5551 5553 5556 5559 5561 5562 5562 5562 5562 5563 5565 5567 5569 5572 5574 5577 5579 5581 5583 5585 5586 5588 5589 5591 5593 5594 5596 5597 5599 5601 5602 5604 5606 5607 5607
5459 5459 5458 5458 5459 5459 5460 5461 5462 5463 5464 5465 5467 5468 5470 5472 5474 5476 5476 5477 5481 5484 5485 5486 5489 5491 5493 5495 5497 5499 5501 5502 5502 5503 5506 5509 5510 5510 5513 5518 5521 5522 5524 5526 5528 5531 5534 5536 5537 5539 5541 5544 5547 5549 5552 5553 5554 5554 5555 5556 5557 5559 5561 5564 5567 5570 5572 5575 5577 5579 5580 5582 5584 5585 5587 5588 5590 5592 5593 5595 5597 5598 5600 5602 5602 5603
5448 5447 5447 5447 5447 5447 5447 5448 5449 5451 5452 5454 5455 5457 5459 5461 5464 5465 5465 5468 5472 5475 5475 5477 5480 5482 5484 5487 5489 5492 5493 5493 5493 5495 5499 5502 5502 5502 5506 5511 5513 5513 5515 5518 5521 5524 5527 5528 5530 5532 5535 5537 5541 5543 5544 5545 5546 5546 5547 5549 5551 5553 5556 5559 5562 5565 5568 5570 5572 5574 5576 5577 5579 5581 5582 5584 5585 5587 5588 5590 5592 5594 5596 5597 5598 5600
5438 5437 5437 5436 5435 5435 5436 5436 5437 5438 5440 5441 5443 5445 5447 5450 5452 5454 5455 5458 5462 5464 5465 5467 5471 5473 5475 5478 5481 5483 5484 5484 5485 5487 5491 5493 5494 5495 5501 5504 5505 5506 5509 5512 5514 5516 5518 5521 5523 5525 5528 5531 5534 5537 5539 5540 5541 5542 5543 5545 5547 5549 5551 5554 5557 5560 5563 5565 5567 5569 5571 5572 5574 5576 5577 5579 5580 5582 5583 5585 5587 5589 5591 5592 5594 5596
5428 5428 5427 5426 5426 5425 5426 5426 5426 5427 5427 5429 5431 5433 5436 5438 5441 5443 5445 5448 5450 5453 5455 5458 5461 5463 5466 5469 5472 5474 5475 5476 5477 5480 5482 5485 5487 5489 5495 5497 5498 5499 5502 5505 5507 5509 5512 5515 5517 5519 5522 5525 5528 5531 5533 5535 5536 5537 5539 5541 5543 5545 5547 5550 5552 5555 5557 5560 5562 5563 5565 5567 5569 5570 5572 5574 5575 5577 5579 5581 5582 5584 5586 5587 5589 5591
5419 5418 5418 5417 5417 5417 5416 5416 5416 5417 5417 5418 5419 5421 5424 5426 5429 5432 5434 5437 5440 5442 5445 5448 5451 5453 5457 5460 5462 5465 5466 5468 5469 5471 5474 5477 5480 5483 5487 5490 5492 5493 5495 5498 5500 5502 5506 5509 5511 5513 5516 5519 5522 5525 5528 5530 5531 5533 5535 5537 5538 5540 5542 5545 5548 5550 5552 5554 5556 5558 5560 5562 5563 5565 5567 5569 5571 5572 5574 5576 5578 5579 5581 5583 5585 5587
5411 5410 5409 5408 5408 5408 5408 5407 5407 5408 5408 5409 5409 5411 5412 5415 5417 5420 5423 5426 5429 5432 5435 5438 5440 5443 5447 5450 5453 5455 5457 5459 5460 5462 5466 5470 5473 5475 5479 5483 5485 5486 5488 5491 5493 5496 5499 5502 5506 5508 5509 5512 5515 5519 5522 5525 5526 5528 5530 5532 5534 5536 5537 5540 5543 5545 5547 5549 5552 5553 5555 5557 5558 5560 5562 5564 5566 5568 5570 5572 5573 5575 5577 5579 5581 5583
5403 5402 5401 5401 5400 5400 5400 5400 5400 5400 5400 5400 5401 5402 5403 5405 5407 5409 5412 5415 5418 5421 5424 5427 5430 5433 5437 5440 5443 5446 5447 5449 5450 5453 5458 5462 5464 5467 5472 5476 5477 5479 5482 5485 5487 5489 5493 5496 5499 5502 5503 5506 5509 5512 5516 5519 5521 5523 5525 5527 5529 5531 5533 5535 5538 5540 5542 5545 5547 5549 5551 5552 5554 5556 5557 5559 5561 5563 5565 5567 5569 5571 5573 5575 5577 5579
5396 5395 5394 5393 5393 5393 5392 5392 5392 5392 5393 5393 5393 5393 5395 5396 5397 5399 5401 5404 5407 5410 5413 5417 5420 5423 5426 5430 5433 5436 5437 5438 5440 5444 5449 5452 5455 5459 5464 5467 5469 5472 5476 5478 5481 5483 5487 5489 5492 5495 5498 5501 5503 5505 5508 5512 5515 5518 5522 5523 5525 5526 5528 5530 5532 5535 5537 5540 5542 5545 5547 5549 5550 5552 5553 5555 5557 5558 5560 5562 5565 5567 5569 5571 5573 5575
5389 5388 5387 5387 5386 5386 5386 5385 5385 5386 5386 5386 5386 5387 5387 5388 5389 5390 5392 5394 5397 5400 5403 5406 5409 5412 5416 5419 5422 5425 5427 5428 5432 5436 5440 5442 5446 5451 5456 5458 5461 5465 5470 5472 5474 5477 5481 5483 5487 5490 5493 5495 5497 5499 5502 5505 5509 5513 5517 5518 5520 5522 5523 5525 5527 5530 5532 5535 5537 5540 5542 5544 5546 5548 5549 5551 5552 5554 5555 5557 5560 5562 5565 5567 5569 5571
5382 5382 5381 5380 5380 5380 5380 5379 5379 5379 5379 5380 5380 5380 5381 5382 5382 5383 5384 5386 5388 5391 5393 5396 5399 5402 5405 5408 5412 5414 5417 5419 5423 5426 5429 5432 5437 5442 5447 5449 5453 5458 5462 5464 5467 5471 5475 5478 5481 5483 5486 5488 5491 5494 5496 5499 5502 5506 5509 5511 5514 5516 5518 5520 5522 5525 5527 5529 5532 5534 5537 5540 5542 5544 5546 5547 5548 5550 5551 5553 5555 5557 5560 5562 5565 5567
5377 5376 5375 5375 5374 5374 5374 5374 5373 5373 5373 5374 5374 5374 5375 5375 5376 5377 5377 5379 5380 5382 5384 5387 5389 5392 5395 5398 5401 5404 5407 5410 5413 5416 5418 5422 5427 5432 5436 5440 5445 5449 5452 5456 5461 5465 5469 5472 5474 5477 5479 5482 5485 5488 5491 5494 5496 5499 5502 5505 5509 5511 5513 5515 5518 5520 5522 5524 5527 5530 5532 5535 5537 5540 5542 5543 5544 5546 5547 5549 5551 5553 5555 5557 5560 5562
5371 5370 5370 5369 5369 5369 5369 5369 5368 5368 5368 5368 5369 5369 5369 5370 5371 5371 5372 5372 5374 5375 5377 5379 5381 5383 5386 5388 5391 5394 5397 5400 5403 5406 5409 5413 5417 5422 5426 5431 5436 5440 5444 5448 5453 5457 5461 5464 5467 5470 5473 5476 5479 5482 5485 5488 5490 5493 5497 5500 5503 5505 5507 5510 5513 5516 5518 5520 5522 5525 5527 5530 5532 5535 5537 5538 5540 5542 5543 5545 5547 5549 5551 5553 5555 5557
5366 5365 5365 5364 5364 5364 5364 5364 5364 5363 5364 5364 5364 5364 5365 5365 5366 5366 5366 5367 5368 5369 5370 5372 5374 5376 5377 5380 5382 5385 5388 5391 5394 5397 5400 5404 5407 5412 5417 5422 5426 5431 5435 5441 5445 5449 5453 5457 5460 5463 5467 5470 5472 5475 5479 5482 5484 5487 5491 5493 5495 5497 5499 5503 5507 5510 5513 5516 5518 5520 5522 5524 5527 5529 5532 5534 5536 5537 5539 5541 5543 5545 5547 5549 5550 5552
5362 5361 5360 5360 5360 5360 5360 5359 5359 5359 5359 5360 5360 5360 5360 5361 5361 5362 5362 5362 5363 5364 5365 5366 5367 5369 5370 5372 5374 5376 5379 5382 5385 5388 5391 5394 5398 5403 5408 5412 5417 5421 5427 5432 5436 5440 5444 5448 5452 5456 5459 5462 5465 5468 5472 5475 5478 5482 5484 5486 5488 5491 5495 5499 5502 5504 5507 5510 5512 5514 5516 5518 5521 5523 5526 5528 5531 5532 5535 5537 5538 5540 5542 5544 5546 5548
5357 5357 5356 5356 5356 5356 5356 5356 5356 5356 5356 5356 5356 5356 5356 5357 5357 5358 5358 5358 5359 5359 5360 5361 5362 5363 5364 5365 5367 5368 5371 5373 5376 5379 5382 5386 5390 5394 5398 5403 5407 5412 5417 5422 5427 5431 5435 5440 5444 5448 5452 5455 5458 5462 5465 5468 5472 5475 5477 5479 5482 5487 5490 5492 5495 5498 5502 5504 5506 5508 5511 5513 5515 5517 5520 5522 5525 5527 5530 5532 5533 5535 5537 5539 5541 5543
5354 5353 5353 5352 5352 5352 5352 5352 5352 5352 5352 5353 5353 5353 5353 5353 5354 5354 5355 5355 5355 5356 5356 5357 5357 5358 5360 5360 5361 5362 5363 5365 5368 5371 5374 5378 5381 5385 5389 5393 5397 5402 5407 5413 5417 5421 5425 5431 5436 5439 5443 5447 5451 5455 5457 5461 5465 5468 5470 5472 5475 5478 5481 5483 5487 5491 5495 5497 5500 5502 5505 5507 5509 5512 5514 5517 5520 5522 5525 5527 5529 5530 5532 5535 5537 5539
5351 5350 5349 5349 5349 5349 5349 5349 5349 5349 5350 5350 5350 5350 5350 5351 5351 5352 5352 5352 5352 5352 5353 5353 5354 5355 5356 5356 5356 5357 5358 5359 5361 5364 5367 5370 5373 5377 5381 5384 5388 5392 5397 5402 5407 5411 5416 5422 5426 5430 5434 5439 5444 5447 5450 5453 5457 5460 5463 5466 5468 5471 5473 5477 5481 5485 5487 5490 5493 5496 5498 5501 5504 5507 5509 5512 5514 5517 5519 5522 5524 5526 5528 5530 5532 5535
5348 5347 5347 5347 5346 5346 5346 5346 5347 5347 5347 5347 5347 5347 5348 5348 5348 5349 5349 5349 5350 5350 5350 5350 5351 5352 5352 5352 5352 5353 5354 5354 5355 5357 5359 5362 5366 5369 5373 5376 5380 5383 5388 5392 5397 5401 5407 5412 5417 5421 5426 5432 5436 5439 5442 5445 5449 5452 5456 5459 5462 5464 5467 5471 5474 5477 5480 5484 5487 5490 5492 5495 5498 5501 5504 5506 5509 5511 5514 5517 5519 5522 5524 5526 5528 5530
5345 5345 5344 5344 5344 5344 5344 5344 5344 5344 5345 5345 5345 5345 5345 5346 5346 5347 5347 5347 5347 5347 5348 5348 5348 5349 5348 5348 5349 5350 5351 5351 5351 5352 5353 5356 5359 5362 5365 5368 5371 5375 5379 5383 5387 5392 5397 5402 5407 5412 5417 5423 5427 5430 5433 5437 5441 5444 5448 5451 5454 5457 5460 5463 5467 5470 5473 5478 5482 5484 5487 5490 5493 5495 5497 5500 5503 5507 5509 5512 5515 5517 5520 5522 5524 5526
5343 5342 5342 5342 5342 5342 5342 5342 5342 5342 5342 5342 5342 5343 5343 5343 5344 5344 5345 5345 5345 5346 5346 5346 5346 5346 5346 5346 5347 5347 5347 5347 5347 5348 5349 5351 5352 5355 5358 5361 5364 5367 5371 5375 5379 5383 5388 5392 5397 5402 5408 5413 5417 5421 5425 5429 5433 5436 5439 5443 5447 5450 5453 5456 5460 5463 5467 5472 5475 5478 5481 5484 5487 5488 5492 5495 5498 5501 5504 5507 5510 5513 5516 5518 5520 5522
5341 5340 5340 5340 5340 5339 5339 5339 5340 5340 5340 5340 5340 5341 5341 5341 5342 5342 5342 5343 5343 5343 5343 5343 5343 5343 5343 5343 5344 5344 5345 5345 5345 5345 5346 5347 5348 5349 5352 5354 5357 5360 5363 5367 5370 5374 5378 5383 5387 5392 5398 5402 5407 5411 5416 5420 5424 5427 5431 5435 5439 5442 5446 5449 5453 5457 5461 5464 5468 5472 5475 5478 5480 5483 5487 5490 5492 5495 5499 5503 5506 5508 5511 5514 5516 5519
5338 5338 5338 5338 5337 5337 5337 5337 5337 5338 5338 5338 5338 5338 5339 5339 5339 5340 5340 5340 5341 5341 5341 5341 5341 5341 5341 5341 5341 5341 5342 5342 5342 5342 5343 5343 5344 5345 5347 5349 5351 5353 5357 5360 5363 5367 5370 5374 5379 5383 5387 5392 5397 5402 5407 5411 5415 5419 5422 5427 5430 5434 5437 5441 5446 5450 5453 5457 5461 5465 5468 5472 5475 5478 5482 5484 5487 5490 5494 5498 5501 5504 5507 5509 5512 5515
5336 5336 5336 5336 5336 5335 5335 5336 5336 5336 5336 5336 5336 5337 5337 5337 5337 5337 5338 5338 5338 5338 5338 5338 5338 5338 5338 5338 5338 5339 5339 5339 5339 5339 5340 5340 5341 5342 5343 5344 5346 5348 5351 5353 5356 5359 5363 5367 5371 5374 5378 5383 5387 5392 5397 5401 5405 5410 5414 5418 5422 5426 5430 5435 5439 5442 5446 5450 5454 5458 5462 5466 5469 5472 5476 5478 5481 5485 5489 5492 5496 5499 5502 5505 5508 5511